This is the latest recevied weather packets stored in our database for station/object F1AGU-13. If no packets are shown the sender has not sent any weather packets the latest 10 day(s).
| Time | Temp. | Humidity | Pressure | Rain* | Wind** | Luminosity | Snow |
|---|---|---|---|---|---|---|---|
| 1787628017 | 13.33° C | 96% | 1014.9 hPa | 0 mm | - | - | - |
| 1787627417 | 13.33° C | 96% | 1014.8 hPa | 0.25 mm | - | - | - |
| 1787626817 | 13.33° C | 96% | 1014.8 hPa | 0.25 mm | - | - | - |
| 1787626217 | 13.89° C | 96% | 1014.8 hPa | 0.25 mm | - | - | - |
| 1787625617 | 13.89° C | 96% | 1014.9 hPa | 0.51 mm | - | - | - |
| 1787625017 | 13.89° C | 96% | 1014.8 hPa | 0.51 mm | - | - | - |
| 1787624417 | 13.89° C | 96% | 1014.8 hPa | 0.76 mm | - | - | - |
| 1787623817 | 14.44° C | 96% | 1014.7 hPa | 0.76 mm | - | - | - |
| 1787623216 | 14.44° C | 96% | 1014.9 hPa | 1.02 mm | - | - | - |
| 1787622616 | 14.44° C | 96% | 1014.9 hPa | 1.52 mm | - | - | - |
| 1787622017 | 14.44° C | 96% | 1014.9 hPa | 1.52 mm | - | - | - |
| 1787621416 | 14.44° C | 96% | 1014.5 hPa | 1.52 mm | - | - | - |
| 1787620816 | 14.44° C | 96% | 1014.7 hPa | 1.78 mm | - | - | - |
| 1787620216 | 15° C | 96% | 1014.5 hPa | 2.03 mm | - | - | - |
| 1787619616 | 15° C | 96% | 1014.6 hPa | 2.29 mm | - | - | - |
| 1787619016 | 15° C | 96% | 1014.6 hPa | 2.29 mm | - | - | - |
| 1787618416 | 15° C | 96% | 1014.7 hPa | 2.54 mm | - | - | - |
| 1787617816 | 15° C | 96% | 1014.6 hPa | 2.79 mm | - | - | - |
| 1787617216 | 15° C | 96% | 1014.7 hPa | 2.79 mm | - | - | - |
| 1787616616 | 15° C | 96% | 1014.9 hPa | 2.54 mm | - | - | - |
| 1787616016 | 15° C | 95% | 1014.6 hPa | 2.29 mm | - | - | - |
| 1787615416 | 15.56° C | 95% | 1014.6 hPa | 1.78 mm | - | - | - |
| 1787614816 | 15.56° C | 95% | 1014.7 hPa | 1.52 mm | - | - | - |
| 1787614216 | 15.56° C | 95% | 1014.5 hPa | 0.76 mm | - | - | - |
| 1787613616 | 15.56° C | 95% | 1014.5 hPa | 0.51 mm | - | - | - |
* Rain latest hour (hover to see other rain measurements)
** Current wind speed in m/s (hover to see current wind gust speed)